GFSMA_prec_pwat_273.txt.gz
Precipitable_Water
1.92 1.94 1.92 1.98 2.03 2.08 2.22 1.86 1.83 1.83 1.84 1.81 1.81 1.76 1.75 1.66 1.72 1.82 1.87 1.91 1.94 1.94 1.98 1.97 1.80 1.85 1.95 1.94 1.95 1.84 1.65 1.59 1.59 1.57 1.56 1.42 1.43 1.46 1.55 1.67 1.74 1.74 1.76
1.93 2.02 2.01 1.93 2.02 2.09 1.94 1.93 1.83 1.84 1.86 1.85 1.77 1.85 1.83 1.92 1.80 1.89 1.87 1.88 1.89 1.91 2.01 2.04 1.95 1.89 1.95 2.10 2.08 2.04 1.91 1.75 1.62 1.59 1.59 1.58 1.42 1.41 1.40 1.45 1.60 1.74 1.75
2.08 2.19 2.05 2.06 2.10 2.09 2.03 1.95 1.91 1.92 1.88 1.85 1.89 1.96 1.83 1.90 1.89 1.95 2.02 1.94 2.03 1.97 2.02 2.00 2.05 2.02 1.97 2.10 2.18 2.16 2.12 1.89 1.80 1.67 1.63 1.59 1.58 1.44 1.39 1.44 1.45 1.56 1.63
2.25 2.13 2.12 2.11 2.13 2.04 2.05 2.00 1.87 1.96 2.08 2.03 1.88 1.89 1.97 2.07 2.03 2.10 2.12 2.08 2.07 2.09 2.07 2.07 2.09 2.16 2.09 2.01 2.16 2.15 2.17 2.11 1.96 1.81 1.78 1.74 1.68 1.67 1.55 1.37 1.39 1.45 1.54
2.17 2.16 2.17 2.12 2.08 2.03 2.11 2.06 2.13 2.08 2.01 2.06 2.09 2.08 2.07 2.00 2.07 2.18 2.23 2.24 2.18 2.14 2.28 2.29 2.27 2.30 2.20 1.98 2.12 2.15 2.15 2.14 2.14 2.01 1.81 1.86 1.80 1.73 1.69 1.68 1.50 1.35 1.37
2.07 2.04 2.12 2.11 2.10 1.99 2.07 2.17 2.11 2.10 2.07 1.98 1.98 1.88 2.08 1.95 1.95 1.99 2.04 2.21 2.36 2.14 2.15 2.43 2.34 2.41 2.26 2.18 2.20 2.18 2.24 2.14 2.16 2.11 2.08 1.91 1.89 1.91 1.82 1.74 1.74 1.76 1.56
2.15 2.13 2.15 2.19 2.07 1.93 2.03 2.14 2.07 1.99 2.07 2.11 1.93 1.87 1.94 1.92 1.97 1.99 2.04 2.11 2.10 2.11 2.22 2.17 2.12 2.49 2.42 2.37 2.15 2.19 2.21 2.24 2.27 2.19 2.09 2.09 2.04 1.96 1.92 1.87 1.86 1.79 1.82
2.18 2.22 2.28 2.17 2.18 2.16 2.05 2.05 2.04 1.88 1.95 2.10 1.84 1.85 1.60 1.81 1.93 1.87 1.99 1.94 1.98 2.01 1.98 2.07 2.06 2.18 2.44 2.39 2.38 2.30 2.16 2.19 2.22 2.24 2.15 2.10 2.07 2.13 2.08 1.97 1.95 1.95 1.93
2.08 2.13 2.19 2.07 2.06 2.16 2.01 2.03 2.03 2.08 1.90 1.97 2.09 1.85 1.58 1.45 1.60 1.83 1.77 1.88 2.01 2.09 2.19 2.18 1.97 2.00 2.08 2.34 2.51 2.41 2.42 2.15 2.21 2.23 2.20 2.15 2.10 2.15 2.14 2.17 2.11 2.07 1.95
2.07 2.06 2.02 1.98 2.02 2.09 1.95 2.02 2.13 2.14 2.04 1.89 2.02 2.02 1.91 1.74 1.38 1.37 1.77 1.80 1.93 1.97 1.87 2.05 1.80 2.02 2.24 2.46 2.66 2.35 2.32 2.05 2.14 2.16 2.14 2.12 2.12 2.10 2.17 2.20 2.16 2.09 2.14
2.09 2.00 1.87 1.74 1.68 1.77 1.90 2.02 2.08 2.03 2.07 1.95 1.88 1.84 1.74 1.81 1.87 1.61 1.18 1.41 1.74 1.98 1.88 1.78 1.70 1.91 2.08 2.03 1.55 1.77 2.01 2.22 2.10 2.08 2.10 2.07 2.10 2.08 2.07 2.15 2.16 2.07 1.99
1.80 1.73 1.62 1.57 1.57 1.65 1.73 1.84 1.95 1.99 1.94 1.92 1.89 1.76 1.55 1.51 1.67 1.69 1.52 1.40 1.49 1.61 1.40 1.50 1.62 1.80 1.68 1.60 1.70 1.56 1.68 2.39 2.11 2.07 2.01 2.01 2.01 2.01 2.00 2.03 2.11 2.11 2.06
1.61 1.50 1.28 1.19 1.29 1.46 1.51 1.61 1.71 1.76 1.80 1.79 1.63 1.42 1.12 1.06 1.43 1.61 1.45 1.21 1.02 1.01 1.15 1.43 1.61 1.80 1.96 1.73 1.70 1.75 1.68 1.81 1.91 1.98 1.96 1.98 2.00 1.93 1.90 1.92 2.07 2.04 2.07
1.33 1.31 1.16 1.00 0.88 0.94 1.15 1.36 1.53 1.59 1.57 1.49 1.42 1.28 0.82 0.85 1.01 1.02 0.98 0.89 0.71 0.69 0.92 1.14 1.61 1.70 1.69 1.71 1.63 1.64 1.64 1.64 1.60 1.80 1.91 1.97 2.00 1.92 1.86 1.87 1.88 1.90 1.93
1.13 0.99 0.89 0.84 0.87 0.85 0.76 0.79 0.87 1.04 1.05 0.92 0.87 0.81 0.82 0.86 0.92 1.02 1.03 0.99 0.83 0.64 0.71 1.03 1.08 1.34 1.39 1.48 1.43 1.36 1.38 1.48 1.39 1.58 1.72 1.75 1.75 1.81 1.77 1.80 1.83 1.84 1.86
0.97 0.89 0.83 0.85 0.85 0.84 0.80 0.72 0.69 0.72 0.68 0.68 0.74 0.76 0.78 0.83 0.83 0.97 1.00 0.99 0.97 0.81 0.64 0.98 1.09 1.17 1.20 1.23 1.23 1.23 1.24 1.25 1.31 1.34 1.50 1.52 1.58 1.63 1.64 1.63 1.68 1.68 1.67
0.92 0.93 0.96 0.99 0.92 0.87 0.86 0.77 0.80 0.80 0.76 0.80 0.89 0.88 0.88 0.94 0.92 0.88 0.93 0.95 0.90 0.90 0.72 0.74 0.90 1.11 1.15 1.13 1.14 1.05 1.06 1.08 1.13 1.20 1.31 1.42 1.51 1.48 1.36 1.35 1.43 1.53 1.56
1.07 1.08 1.12 1.11 1.12 1.05 0.96 0.85 0.80 0.83 0.82 0.84 0.89 0.89 0.86 0.88 0.86 0.91 0.93 0.94 0.97 1.02 0.97 0.83 0.92 0.89 0.96 1.06 1.09 1.09 1.12 1.26 1.17 1.25 1.22 1.48 1.40 1.33 1.32 1.27 1.33 1.43 1.53
1.15 1.22 1.23 1.25 1.18 1.15 1.11 1.10 0.99 0.90 0.87 0.87 0.90 0.87 0.90 0.91 0.81 0.83 0.86 0.87 0.93 0.95 0.97 0.87 0.81 1.00 1.09 1.17 1.14 1.23 1.19 1.16 1.31 1.35 1.38 1.40 1.45 1.43 1.44 1.36 1.22 1.35 1.44
1.16 1.23 1.27 1.32 1.29 1.24 1.25 1.21 1.11 1.02 0.90 0.88 0.91 0.85 0.90 0.87 0.80 0.73 0.70 0.76 0.78 0.77 0.81 0.83 0.82 0.97 1.05 1.14 1.22 1.06 1.02 1.16 1.14 1.29 1.33 1.47 1.50 1.53 1.51 1.51 1.39 1.30 1.35
1.27 1.29 1.27 1.28 1.27 1.25 1.23 1.20 1.10 1.01 0.95 0.86 0.82 0.77 0.75 0.76 0.80 0.81 0.79 0.75 0.72 0.68 0.67 0.69 0.78 0.91 0.93 0.97 1.04 1.11 1.05 1.05 1.12 1.26 1.26 1.35 1.43 1.51 1.58 1.65 1.68 1.58 1.44
1.33 1.28 1.30 1.30 1.31 1.27 1.21 1.13 1.07 0.93 0.84 0.90 0.81 0.76 0.64 0.79 0.86 0.92 0.92 0.82 0.76 0.75 0.71 0.71 0.74 0.81 0.90 1.00 1.05 1.02 0.97 0.85 0.77 1.17 1.17 1.23 1.52 1.41 1.46 1.57 1.66 1.60 1.45
1.30 1.32 1.32 1.36 1.34 1.31 1.21 1.13 1.02 0.96 0.81 0.74 0.86 0.80 0.76 0.69 0.76 0.78 0.76 0.70 0.65 0.80 0.86 0.84 0.80 0.87 0.89 0.95 0.96 0.92 0.88 0.85 0.80 1.00 1.15 1.08 1.32 1.34 1.39 1.53 1.56 1.43 1.30
1.28 1.34 1.35 1.35 1.24 1.13 1.10 1.08 1.03 0.91 0.73 0.82 0.89 0.90 0.81 0.66 0.67 0.67 0.57 0.47 0.63 0.72 0.81 0.91 0.96 1.03 1.02 0.97 0.93 0.93 0.86 0.88 0.95 1.02 1.12 1.00 1.24 1.28 1.38 1.37 1.37 1.28 1.22
1.33 1.37 1.41 1.33 1.15 1.10 1.10 1.06 0.99 0.89 0.73 0.78 0.86 0.88 0.84 0.66 0.68 0.73 0.65 0.50 0.52 0.67 0.80 0.88 0.95 0.96 0.96 0.92 0.88 0.82 0.79 0.78 0.77 0.88 0.98 1.03 1.12 1.12 1.19 1.18 1.22 1.21 1.18
1.46 1.40 1.32 1.20 1.12 1.04 1.01 0.95 0.91 0.82 0.62 0.69 0.75 0.69 0.69 0.65 0.70 0.75 0.67 0.55 0.40 0.54 0.68 0.74 0.78 0.83 0.92 0.97 0.99 0.93 0.85 0.68 0.71 0.80 0.92 0.83 0.94 0.98 0.92 1.17 1.14 1.18 1.18

GFSMA_prec_pwat_276.txt.gz
Precipitable_Water
1.82 1.85 1.88 1.97 1.98 2.08 1.94 1.82 1.80 1.81 1.88 1.87 1.85 1.79 1.72 1.70 1.70 1.76 1.81 1.91 1.89 1.95 2.04 2.01 2.01 1.85 1.80 1.88 1.91 1.77 1.58 1.58 1.59 1.56 1.52 1.53 1.64 1.70 1.77 1.80 1.75 1.76 1.75
1.95 1.97 1.96 2.00 1.98 1.98 2.02 1.94 1.88 1.83 1.86 1.84 1.85 1.77 1.71 1.88 1.92 1.83 1.83 1.91 1.88 1.95 2.05 2.12 2.11 1.98 1.93 1.95 2.03 2.03 1.93 1.67 1.59 1.62 1.59 1.54 1.49 1.53 1.69 1.78 1.80 1.75 1.77
2.05 2.09 2.08 2.03 2.06 2.08 2.01 2.01 1.94 1.92 1.85 1.86 1.81 1.89 1.82 1.88 1.86 2.04 2.07 2.09 2.01 2.07 2.08 2.15 2.15 2.16 2.08 2.04 2.06 2.11 2.12 1.94 1.76 1.63 1.65 1.61 1.55 1.48 1.49 1.68 1.76 1.79 1.79
2.23 2.11 2.05 2.07 2.12 2.13 2.10 2.08 1.93 1.89 2.04 2.04 1.92 1.81 1.86 2.03 2.10 2.10 2.27 2.19 2.16 2.17 2.12 2.13 2.26 2.22 2.29 2.23 2.09 2.16 2.18 2.17 1.98 1.79 1.69 1.70 1.68 1.62 1.54 1.45 1.56 1.71 1.73
2.15 2.09 2.12 2.11 2.09 2.03 2.09 2.06 2.07 2.11 1.99 2.01 1.97 2.00 2.03 2.06 2.11 2.26 2.26 2.19 2.22 2.21 2.19 2.20 2.23 2.36 2.34 2.33 2.27 2.15 2.19 2.22 2.19 2.00 1.81 1.73 1.74 1.73 1.67 1.56 1.44 1.47 1.58
2.02 2.04 2.08 2.09 2.04 1.96 2.02 2.11 2.10 2.16 2.04 1.95 1.96 1.90 1.97 2.06 1.95 2.12 2.18 2.27 2.28 2.26 2.29 2.20 2.31 2.32 2.36 2.50 2.37 2.16 2.19 2.25 2.26 2.22 2.08 1.82 1.83 1.78 1.78 1.74 1.63 1.48 1.41
2.07 2.04 2.04 2.15 2.05 1.90 1.88 2.08 2.10 2.02 1.97 2.17 2.05 1.89 1.97 2.03 1.95 2.04 2.09 2.01 2.09 2.19 2.17 2.17 2.20 2.18 2.18 2.24 2.42 2.25 2.21 2.19 2.25 2.21 2.23 2.17 1.88 1.89 1.89 1.78 1.77 1.78 1.63
2.14 2.19 2.22 2.16 2.15 2.16 2.15 2.03 2.03 1.97 1.90 1.99 1.90 1.82 1.64 1.79 1.95 1.95 1.98 1.95 1.98 2.03 2.08 2.06 2.01 1.99 2.04 2.17 2.28 2.30 2.24 2.24 2.28 2.27 2.19 2.18 2.16 2.00 1.88 1.90 1.84 1.83 1.82
2.02 2.06 2.07 2.15 2.03 2.14 2.09 2.02 2.02 2.01 1.91 2.03 2.06 1.84 1.58 1.47 1.59 1.85 1.80 1.85 1.97 1.97 2.03 2.01 1.92 1.81 2.10 2.11 2.09 2.18 2.31 2.28 2.29 2.31 2.25 2.17 2.12 2.11 2.08 2.07 2.02 1.96 1.95
2.10 2.06 2.05 2.00 1.91 1.93 1.99 1.98 2.04 2.05 2.05 1.88 2.02 2.13 2.01 1.88 1.54 1.32 1.62 1.79 1.88 1.88 1.96 1.94 1.71 1.78 1.93 2.03 1.81 2.05 2.15 2.23 2.20 2.25 2.25 2.21 2.11 2.07 2.12 2.18 2.23 2.23 2.14
2.07 1.95 1.82 1.73 1.66 1.65 1.73 1.86 1.97 2.02 2.02 1.94 1.87 1.84 1.80 1.68 1.58 1.43 1.41 1.44 1.62 1.68 1.87 1.79 1.67 1.73 1.80 1.72 1.71 1.81 1.93 2.16 2.22 2.14 2.11 2.14 2.14 2.12 2.12 2.18 2.18 2.18 2.21
1.75 1.74 1.66 1.59 1.48 1.48 1.55 1.63 1.73 1.83 1.86 1.95 1.87 1.81 1.59 1.28 1.15 1.46 1.55 1.55 1.37 1.43 1.70 1.63 1.45 1.52 1.78 1.82 1.72 1.71 1.63 1.98 2.17 2.14 1.98 1.98 2.07 2.15 2.11 2.09 2.10 2.17 2.15
1.61 1.52 1.39 1.12 1.04 1.23 1.39 1.50 1.53 1.61 1.71 1.73 1.71 1.55 1.45 1.21 0.94 1.01 1.21 1.23 1.06 0.94 1.11 1.38 1.44 1.61 1.93 1.99 1.70 1.68 1.63 1.75 1.93 2.02 2.05 2.00 1.93 2.01 1.99 2.00 2.02 2.10 2.09
1.32 1.23 1.13 1.03 0.91 0.85 0.97 1.24 1.34 1.45 1.49 1.47 1.44 1.37 1.20 0.87 0.84 0.89 0.84 0.78 0.74 0.80 0.95 1.11 1.47 1.56 1.62 1.57 1.62 1.59 1.51 1.50 1.67 1.75 1.91 1.99 2.04 2.00 1.96 1.93 1.96 2.03 2.03
1.10 1.03 0.90 0.81 0.81 0.79 0.76 0.79 0.77 0.81 0.88 0.89 0.82 0.82 0.78 0.82 0.86 0.96 0.96 0.92 0.79 0.65 0.78 1.06 1.11 1.32 1.42 1.48 1.47 1.45 1.43 1.40 1.46 1.46 1.58 1.75 1.88 1.93 1.92 1.87 1.86 1.92 1.95
1.08 1.00 0.95 0.84 0.82 0.79 0.77 0.73 0.69 0.70 0.64 0.70 0.75 0.76 0.81 0.86 0.89 0.94 1.03 1.01 0.95 0.79 0.66 0.99 1.09 1.18 1.22 1.19 1.21 1.22 1.21 1.23 1.23 1.33 1.28 1.51 1.61 1.65 1.65 1.70 1.71 1.73 1.80
1.04 0.95 0.97 1.00 0.99 0.97 0.92 0.83 0.79 0.78 0.76 0.79 0.87 0.86 0.86 0.92 0.92 0.92 0.94 0.99 0.94 0.90 0.73 0.86 1.05 1.15 1.21 1.21 1.24 1.26 1.19 1.14 1.15 1.22 1.21 1.41 1.37 1.52 1.50 1.47 1.50 1.50 1.58
0.99 1.05 1.12 1.14 1.12 1.08 0.99 0.96 0.93 0.95 0.88 0.86 0.85 0.84 0.85 0.90 0.83 0.86 0.88 0.91 0.91 0.95 0.88 0.79 0.94 0.96 1.01 1.16 1.20 1.16 1.19 1.29 1.25 1.14 1.24 1.27 1.37 1.42 1.39 1.30 1.25 1.26 1.36
1.11 1.20 1.17 1.20 1.23 1.19 1.14 1.15 1.03 0.97 0.95 0.95 0.94 0.90 0.88 0.87 0.82 0.78 0.76 0.80 0.85 0.93 0.95 0.88 0.81 1.00 1.07 1.17 1.15 1.22 1.24 1.22 1.35 1.33 1.32 1.32 1.41 1.40 1.40 1.40 1.37 1.22 1.33
1.21 1.27 1.27 1.29 1.27 1.26 1.24 1.20 1.12 1.06 0.97 0.89 0.85 0.87 0.83 0.79 0.77 0.72 0.73 0.71 0.73 0.74 0.78 0.79 0.82 0.87 1.03 1.14 1.16 1.16 1.12 1.19 1.21 1.28 1.29 1.38 1.49 1.57 1.66 1.52 1.50 1.41 1.31
1.25 1.32 1.32 1.35 1.34 1.32 1.31 1.27 1.13 1.03 1.01 0.94 0.87 0.83 0.73 0.74 0.79 0.78 0.81 0.77 0.69 0.63 0.67 0.67 0.69 0.78 0.91 0.95 0.93 1.06 1.06 1.16 1.22 1.21 1.17 1.28 1.38 1.45 1.49 1.53 1.62 1.59 1.56
1.28 1.30 1.29 1.31 1.33 1.35 1.33 1.27 1.17 1.01 0.90 0.91 0.85 0.80 0.82 0.78 0.75 0.81 0.79 0.74 0.71 0.62 0.65 0.67 0.69 0.70 0.76 0.87 0.96 0.96 0.96 0.95 0.88 1.16 1.09 1.12 1.38 1.33 1.44 1.55 1.61 1.65 1.62
1.24 1.24 1.27 1.30 1.33 1.34 1.27 1.18 1.10 1.03 0.93 0.77 0.84 0.84 0.85 0.86 0.72 0.73 0.71 0.61 0.57 0.72 0.72 0.72 0.70 0.77 0.82 0.87 0.90 0.88 0.91 0.86 0.88 1.03 1.02 1.02 1.31 1.33 1.49 1.44 1.43 1.42 1.47
1.22 1.27 1.32 1.35 1.40 1.31 1.19 1.15 1.12 1.02 0.91 0.83 0.89 0.87 0.85 0.84 0.73 0.73 0.67 0.58 0.52 0.64 0.71 0.78 0.83 0.89 0.98 0.96 0.94 0.89 0.89 0.94 0.98 0.98 1.04 0.91 1.21 1.16 1.31 1.39 1.40 1.37 1.35
1.35 1.39 1.39 1.42 1.32 1.23 1.19 1.10 1.03 0.92 0.83 0.72 0.82 0.81 0.86 0.79 0.74 0.68 0.66 0.59 0.49 0.47 0.73 0.78 0.80 0.84 0.92 0.96 0.96 0.85 0.74 0.69 0.71 0.85 1.00 0.97 1.01 1.11 1.28 1.30 1.32 1.28 1.22
1.40 1.42 1.38 1.33 1.26 1.15 1.12 1.00 0.99 0.85 0.67 0.57 0.71 0.69 0.67 0.65 0.69 0.66 0.64 0.56 0.40 0.40 0.47 0.64 0.71 0.78 0.81 0.85 0.91 0.95 0.88 0.67 0.66 0.68 0.96 0.91 0.95 0.96 0.94 1.21 1.24 1.23 1.17

GFSMA_prec_pwat_279.txt.gz
Precipitable_Water
1.75 1.80 1.78 1.85 1.92 1.94 1.79 1.76 1.66 1.70 1.76 1.82 1.89 1.85 1.81 1.84 1.82 1.80 1.81 1.85 1.92 1.99 2.08 2.07 2.02 2.03 1.90 1.85 1.85 1.79 1.58 1.54 1.53 1.53 1.55 1.68 1.70 1.74 1.70 1.66 1.76 1.78 1.81
1.95 1.96 1.89 1.93 2.01 1.91 1.94 1.90 1.89 1.83 1.81 1.85 1.81 1.85 1.76 1.74 1.84 2.00 1.86 1.80 1.90 1.94 2.02 2.14 2.20 2.23 2.04 1.94 1.97 1.99 1.97 1.74 1.57 1.55 1.55 1.54 1.62 1.69 1.74 1.79 1.76 1.78 1.76
2.07 2.04 2.05 2.01 1.98 2.04 1.98 2.00 1.97 1.92 1.86 1.92 1.84 1.88 1.90 1.93 1.94 1.96 2.15 2.03 2.01 2.08 2.00 2.11 2.17 2.26 2.28 2.15 2.05 2.10 2.08 1.97 1.85 1.60 1.58 1.56 1.50 1.55 1.71 1.79 1.79 1.76 1.79
2.15 2.12 2.08 2.09 2.08 2.11 2.06 2.05 1.97 1.84 1.95 2.08 1.98 1.94 1.92 1.96 2.13 2.17 2.12 2.19 2.18 2.17 2.17 2.13 2.15 2.23 2.29 2.32 2.34 2.21 2.19 2.21 1.99 1.84 1.69 1.66 1.58 1.53 1.47 1.67 1.80 1.78 1.81
2.14 2.12 2.07 2.10 2.09 2.06 2.07 2.05 2.06 2.11 2.02 2.03 2.03 1.97 2.03 2.04 2.12 2.16 2.21 2.20 2.27 2.23 2.25 2.20 2.19 2.23 2.24 2.27 2.38 2.42 2.25 2.22 2.24 2.12 1.83 1.75 1.76 1.70 1.62 1.47 1.53 1.74 1.79
2.14 2.07 2.08 2.11 2.16 1.99 2.05 2.21 2.09 2.28 2.08 2.02 1.96 1.99 2.00 2.04 1.99 1.97 2.16 2.23 2.23 2.27 2.30 2.28 2.29 2.25 2.25 2.27 2.33 2.33 2.48 2.28 2.27 2.27 2.21 1.84 1.74 1.77 1.75 1.69 1.57 1.48 1.62
2.06 2.04 2.04 2.08 2.05 1.96 1.88 1.97 2.11 2.09 2.00 2.05 1.97 1.94 1.94 2.08 2.06 2.08 2.05 2.09 2.08 2.17 2.25 2.26 2.28 2.27 2.27 2.27 2.32 2.22 2.20 2.22 2.22 2.28 2.28 2.25 1.90 1.75 1.82 1.81 1.71 1.63 1.53
2.12 2.23 2.19 2.16 2.15 2.06 2.11 2.06 1.98 1.95 1.95 1.97 1.77 1.83 1.60 1.79 1.91 1.94 1.93 1.92 1.96 2.04 2.04 2.13 2.16 2.14 2.00 2.16 2.16 2.16 2.10 2.16 2.18 2.23 2.28 2.21 2.23 1.94 1.81 1.82 1.83 1.77 1.75
2.03 2.05 2.03 2.10 2.07 2.11 2.04 2.09 1.99 1.90 1.81 1.96 2.05 1.85 1.60 1.47 1.59 1.86 1.79 1.83 1.89 1.94 1.96 2.02 1.89 1.71 1.99 2.02 2.18 2.18 2.10 2.16 2.16 2.22 2.30 2.18 2.15 2.18 2.03 1.86 1.80 1.79 1.83
1.89 2.04 2.03 2.01 1.89 1.90 1.88 1.96 1.97 1.95 1.98 1.85 2.01 2.03 2.01 1.80 1.49 1.30 1.46 1.60 1.80 1.86 1.82 1.91 1.81 1.70 1.81 1.85 1.92 2.02 2.06 2.14 2.24 2.26 2.23 2.24 2.15 2.12 2.11 2.07 2.02 1.98 1.99
2.05 2.04 1.98 1.82 1.69 1.64 1.64 1.67 1.73 1.85 1.97 1.91 1.89 1.88 1.86 1.74 1.58 1.16 1.25 1.55 1.64 1.64 1.58 1.87 1.71 1.56 1.68 1.66 1.85 2.01 1.98 2.03 2.09 2.18 2.17 2.18 2.15 2.12 2.09 2.09 2.15 2.06 2.12
1.86 1.83 1.75 1.60 1.49 1.42 1.43 1.48 1.56 1.70 1.84 1.91 1.88 1.84 1.66 1.43 1.14 1.10 1.12 1.44 1.48 1.56 1.44 1.63 1.52 1.41 1.64 1.76 1.70 1.82 1.83 1.91 2.11 2.16 2.18 2.11 2.13 2.15 2.13 2.10 2.21 2.21 2.21
1.67 1.60 1.52 1.34 1.09 1.04 1.22 1.35 1.43 1.51 1.61 1.75 1.73 1.63 1.55 1.38 1.27 0.97 0.78 0.93 1.05 0.99 0.99 1.18 1.35 1.42 1.62 1.81 1.78 1.63 1.62 1.63 1.94 2.06 2.09 2.12 2.01 1.98 2.11 2.15 2.13 2.11 2.12
1.47 1.42 1.25 1.14 1.05 0.94 0.94 1.16 1.32 1.36 1.45 1.46 1.44 1.44 1.36 1.19 0.89 0.80 0.76 0.72 0.63 0.72 0.84 0.90 1.23 1.34 1.54 1.63 1.47 1.49 1.55 1.47 1.57 1.75 1.84 1.99 2.06 2.06 1.98 1.97 2.01 2.07 2.09
1.32 1.19 1.10 0.93 0.85 0.80 0.78 0.78 0.81 0.86 0.96 1.00 0.94 0.82 0.76 0.78 0.81 0.83 0.90 0.89 0.72 0.57 0.66 0.93 0.97 1.20 1.28 1.26 1.36 1.39 1.33 1.31 1.38 1.46 1.67 1.72 1.86 1.93 1.99 2.01 2.04 2.05 1.99
1.24 1.15 1.08 1.02 0.92 0.87 0.80 0.74 0.72 0.73 0.68 0.73 0.77 0.77 0.81 0.86 0.87 0.87 0.89 0.93 0.90 0.76 0.64 0.87 0.96 1.07 1.13 1.15 1.19 1.21 1.23 1.19 1.19 1.16 1.27 1.31 1.47 1.73 1.85 1.93 1.95 1.94 1.85
1.17 1.15 1.10 1.04 1.04 1.05 1.01 0.96 0.92 0.89 0.84 0.84 0.88 0.85 0.83 0.89 0.90 0.95 0.96 0.92 0.89 0.87 0.69 0.75 0.91 1.02 1.07 1.10 1.16 1.20 1.21 1.15 1.15 1.12 1.13 1.18 1.20 1.42 1.61 1.77 1.73 1.64 1.66
1.09 1.00 1.07 1.12 1.16 1.15 1.09 1.08 1.04 1.02 0.99 0.97 0.95 0.92 0.90 0.90 0.85 0.84 0.88 0.91 0.88 0.90 0.81 0.69 0.82 0.86 0.89 0.99 1.01 1.04 1.11 1.18 1.18 1.25 1.13 1.13 1.22 1.38 1.41 1.49 1.36 1.34 1.33
1.01 1.08 1.13 1.14 1.17 1.18 1.16 1.14 1.06 1.04 0.99 1.00 0.98 0.94 0.90 0.87 0.81 0.78 0.78 0.80 0.87 0.90 0.91 0.85 0.82 0.95 1.01 1.07 1.04 1.08 1.09 1.10 1.24 1.27 1.32 1.28 1.28 1.46 1.48 1.34 1.29 1.30 1.28
1.04 1.15 1.20 1.24 1.25 1.23 1.23 1.24 1.20 1.14 1.05 0.98 0.91 0.93 0.88 0.81 0.77 0.71 0.73 0.71 0.72 0.74 0.78 0.78 0.78 0.83 0.93 1.05 1.11 0.98 1.02 1.12 1.12 1.19 1.26 1.34 1.39 1.42 1.44 1.50 1.50 1.48 1.42
1.11 1.17 1.23 1.29 1.32 1.32 1.31 1.31 1.28 1.17 1.10 1.03 0.97 0.94 0.83 0.82 0.84 0.84 0.83 0.78 0.72 0.61 0.64 0.65 0.66 0.73 0.78 0.86 0.91 0.96 0.91 1.01 1.13 1.17 1.12 1.22 1.25 1.36 1.48 1.50 1.64 1.70 1.66
1.17 1.22 1.25 1.25 1.26 1.29 1.34 1.35 1.25 1.09 1.02 0.96 0.92 0.91 0.86 0.92 0.82 0.83 0.81 0.75 0.69 0.60 0.60 0.64 0.65 0.65 0.72 0.82 0.93 0.91 0.86 0.81 0.77 1.13 1.09 1.08 1.26 1.21 1.25 1.39 1.41 1.50 1.56
1.16 1.20 1.25 1.25 1.24 1.28 1.35 1.36 1.24 1.11 1.01 0.90 0.84 0.89 0.85 0.90 0.85 0.78 0.76 0.66 0.57 0.68 0.75 0.69 0.63 0.69 0.74 0.82 0.83 0.80 0.82 0.86 0.84 1.01 0.99 0.89 1.19 1.13 1.25 1.34 1.41 1.44 1.45
1.21 1.23 1.21 1.28 1.32 1.34 1.39 1.32 1.24 1.16 1.05 0.96 0.87 0.85 0.90 0.89 0.89 0.75 0.70 0.68 0.60 0.63 0.72 0.77 0.79 0.84 0.91 0.96 0.89 0.86 0.83 0.87 0.97 1.02 0.99 0.81 1.05 1.10 1.25 1.34 1.48 1.45 1.35
1.31 1.31 1.34 1.40 1.34 1.34 1.32 1.23 1.16 1.08 0.99 0.88 0.79 0.76 0.84 0.87 0.84 0.77 0.66 0.64 0.59 0.43 0.57 0.75 0.79 0.80 0.85 0.92 0.96 0.90 0.78 0.70 0.66 0.80 0.95 0.85 0.96 1.02 1.16 1.23 1.35 1.30 1.32
1.39 1.46 1.47 1.44 1.37 1.26 1.21 1.15 1.14 1.03 0.85 0.72 0.62 0.70 0.71 0.69 0.71 0.71 0.64 0.60 0.47 0.41 0.46 0.50 0.64 0.74 0.80 0.82 0.85 0.87 0.86 0.72 0.66 0.61 0.88 0.83 0.89 0.91 0.86 1.19 1.24 1.20 1.25

GFSMA_prec_pwat_285.txt.gz
Precipitable_Water
1.69 1.70 1.64 1.62 1.73 1.72 1.56 1.64 1.58 1.57 1.55 1.63 1.72 1.76 1.79 1.82 1.87 1.90 1.86 1.82 1.86 1.95 2.07 2.19 2.27 2.18 2.06 1.87 1.83 1.80 1.64 1.57 1.54 1.70 1.72 1.79 1.74 1.83 1.85 1.84 1.76 1.63 1.73
1.84 1.87 1.90 1.92 1.93 1.97 1.88 1.80 1.76 1.65 1.62 1.75 1.77 1.81 1.84 1.86 1.84 1.86 1.90 1.92 1.94 1.98 1.98 2.07 2.22 2.32 2.32 2.13 1.89 1.90 1.96 1.72 1.60 1.53 1.64 1.68 1.66 1.72 1.75 1.83 1.69 1.64 1.65
1.93 1.92 1.94 1.94 1.99 2.01 1.97 1.98 1.95 1.91 1.83 1.84 1.80 1.86 1.85 1.87 1.87 1.88 2.01 2.07 2.15 2.10 2.13 2.11 2.14 2.22 2.29 2.34 2.20 2.00 2.02 2.06 1.80 1.63 1.55 1.59 1.66 1.67 1.68 1.77 1.70 1.70 1.70
2.11 2.13 2.08 2.06 2.12 2.10 2.07 2.00 1.98 1.87 1.91 2.00 1.99 1.97 1.93 1.96 1.97 2.05 2.14 2.21 2.23 2.23 2.21 2.18 2.20 2.20 2.20 2.24 2.34 2.24 2.16 2.17 2.15 1.82 1.74 1.60 1.60 1.64 1.67 1.66 1.72 1.73 1.70
2.13 2.09 2.08 2.08 2.11 2.14 2.11 2.03 2.00 1.92 1.99 2.02 2.02 1.99 1.99 2.02 2.05 2.09 2.10 2.15 2.21 2.22 2.19 2.18 2.23 2.27 2.22 2.21 2.30 2.39 2.39 2.29 2.28 2.20 1.93 1.79 1.65 1.59 1.65 1.71 1.73 1.72 1.70
2.17 2.13 2.14 2.11 2.18 2.12 2.05 2.09 2.02 2.08 2.14 2.06 2.01 2.01 2.05 2.05 2.09 2.05 2.03 2.08 2.15 2.16 2.17 2.15 2.23 2.28 2.25 2.18 2.28 2.37 2.35 2.38 2.35 2.30 2.20 1.98 1.84 1.69 1.57 1.61 1.72 1.73 1.70
2.11 2.06 2.15 2.11 2.13 2.04 1.98 2.01 1.97 2.00 2.04 2.09 2.00 1.91 1.94 2.02 1.97 2.02 2.04 2.09 2.05 2.07 2.17 2.18 2.20 2.24 2.20 2.13 2.14 2.17 2.32 2.38 2.36 2.23 2.28 2.23 1.95 1.87 1.75 1.60 1.51 1.56 1.67
2.18 2.16 2.05 2.05 2.19 2.15 2.09 2.08 2.07 2.03 1.99 2.07 1.86 1.77 1.56 1.76 1.90 1.93 1.96 1.93 1.94 1.98 2.00 2.08 2.11 2.07 1.96 1.89 2.00 2.20 2.23 2.33 2.54 2.35 2.37 2.30 2.27 2.06 1.88 1.83 1.78 1.67 1.52
2.16 2.13 2.05 2.05 2.13 2.10 2.06 2.10 2.09 2.00 1.87 1.97 1.96 1.82 1.63 1.51 1.63 1.80 1.76 1.68 1.67 1.67 1.82 1.94 1.90 1.93 1.82 1.72 1.80 1.96 2.12 2.35 2.37 2.45 2.39 2.31 2.27 2.30 2.25 1.95 1.82 1.80 1.75
2.01 2.05 2.13 2.15 2.09 2.01 1.88 1.85 1.86 1.89 1.89 1.75 1.86 1.98 1.98 1.87 1.58 1.41 1.44 1.49 1.51 1.61 1.76 1.72 1.71 1.80 1.77 1.61 1.68 2.02 2.13 2.22 2.21 2.25 2.29 2.30 2.30 2.27 2.32 2.31 2.08 1.82 1.77
2.07 2.09 2.05 1.97 1.88 1.78 1.62 1.50 1.50 1.48 1.55 1.57 1.75 1.83 1.91 1.97 1.86 1.48 1.08 1.18 1.53 1.69 1.80 1.76 1.78 1.63 1.74 1.64 1.67 1.90 2.04 2.09 2.03 2.12 2.22 2.28 2.32 2.30 2.24 2.19 2.23 2.26 2.06
2.03 1.99 1.88 1.74 1.63 1.43 1.26 1.20 1.37 1.37 1.45 1.58 1.75 1.86 1.80 1.69 1.58 1.41 1.21 1.14 1.04 1.19 1.43 1.67 1.64 1.43 1.54 1.61 1.73 1.79 1.86 1.88 1.97 2.13 2.14 2.14 2.22 2.30 2.23 2.18 2.16 2.17 2.27
1.77 1.71 1.64 1.48 1.35 1.20 1.13 1.09 1.22 1.30 1.45 1.50 1.57 1.73 1.77 1.64 1.53 1.38 1.21 1.04 0.69 0.76 0.88 1.10 1.19 1.25 1.46 1.55 1.68 1.83 1.74 1.70 1.74 1.97 2.06 2.04 2.10 2.13 2.18 2.16 2.13 2.12 2.13
1.53 1.48 1.35 1.22 1.10 0.98 0.90 0.92 1.04 1.23 1.32 1.35 1.40 1.44 1.46 1.46 1.42 1.17 0.80 0.60 0.52 0.66 0.74 0.81 1.07 1.15 1.35 1.44 1.64 1.75 1.69 1.56 1.54 1.56 1.57 1.66 1.87 2.02 2.09 2.12 2.09 2.06 2.12
1.52 1.45 1.32 1.18 1.04 0.88 0.81 0.80 0.80 0.88 0.96 1.00 1.02 0.95 0.86 0.79 0.76 0.73 0.73 0.72 0.65 0.54 0.61 0.81 0.87 1.14 1.24 1.37 1.37 1.53 1.54 1.45 1.32 1.29 1.32 1.37 1.50 1.79 1.90 2.01 2.05 2.05 2.04
1.52 1.41 1.30 1.22 1.11 0.98 0.95 0.90 0.82 0.79 0.74 0.73 0.76 0.78 0.79 0.81 0.81 0.82 0.83 0.83 0.80 0.70 0.59 0.81 0.87 0.99 1.08 1.15 1.29 1.35 1.35 1.24 1.21 1.17 1.15 1.10 1.08 1.26 1.48 1.67 1.84 1.95 2.01
1.49 1.38 1.28 1.22 1.11 1.07 1.08 1.03 1.00 0.96 0.95 0.97 1.00 0.97 0.93 0.94 0.90 0.91 0.93 0.92 0.85 0.84 0.70 0.80 0.89 0.94 0.93 0.98 1.08 1.16 1.17 1.18 1.22 1.20 1.15 1.15 1.12 1.12 1.22 1.26 1.45 1.61 1.74
1.48 1.37 1.26 1.20 1.08 1.12 1.11 1.09 1.08 1.09 1.08 1.06 1.03 0.97 0.92 0.92 0.89 0.88 0.83 0.82 0.86 0.94 0.87 0.78 0.92 0.93 0.94 1.02 1.05 1.03 1.05 1.11 1.18 1.22 1.18 1.20 1.16 1.11 1.15 1.23 1.34 1.44 1.53
1.53 1.40 1.20 1.10 1.14 1.20 1.15 1.18 1.14 1.12 1.17 1.17 1.10 1.02 1.00 0.97 0.91 0.86 0.81 0.75 0.76 0.79 0.83 0.79 0.77 0.90 0.97 1.08 1.04 1.05 1.08 1.17 1.26 1.23 1.16 1.24 1.27 1.26 1.26 1.27 1.33 1.47 1.44
1.58 1.40 1.20 1.08 1.14 1.22 1.23 1.24 1.18 1.20 1.21 1.22 1.14 1.04 1.00 0.95 0.88 0.85 0.80 0.81 0.81 0.75 0.71 0.68 0.68 0.71 0.82 0.96 0.96 0.86 0.90 1.05 1.06 1.24 1.22 1.25 1.25 1.25 1.29 1.39 1.40 1.46 1.43
1.78 1.52 1.21 1.17 1.21 1.22 1.25 1.27 1.24 1.24 1.25 1.26 1.21 1.13 1.05 0.97 0.94 0.89 0.89 0.92 0.79 0.65 0.59 0.58 0.59 0.67 0.70 0.76 0.79 0.86 0.84 0.92 1.02 1.11 1.11 1.17 1.21 1.25 1.28 1.38 1.44 1.46 1.45
1.74 1.65 1.20 1.21 1.28 1.29 1.27 1.32 1.33 1.29 1.29 1.28 1.20 1.14 1.11 1.03 1.05 0.96 0.93 0.89 0.82 0.70 0.55 0.51 0.57 0.59 0.67 0.78 0.87 0.81 0.76 0.75 0.79 1.09 0.94 0.93 1.09 1.10 1.20 1.30 1.30 1.33 1.37
1.84 1.68 1.35 1.31 1.32 1.38 1.36 1.35 1.35 1.33 1.30 1.29 1.18 1.12 1.09 1.04 1.02 1.05 0.96 0.88 0.78 0.76 0.76 0.70 0.63 0.66 0.68 0.80 0.85 0.79 0.79 0.77 0.72 0.86 0.87 0.79 1.07 1.04 1.17 1.18 1.19 1.28 1.30
1.65 1.68 1.64 1.46 1.44 1.44 1.39 1.37 1.37 1.34 1.37 1.30 1.20 1.07 0.97 1.02 1.08 1.06 1.00 0.85 0.74 0.73 0.71 0.69 0.69 0.72 0.77 0.81 0.84 0.81 0.83 0.81 0.80 0.84 0.91 0.72 1.01 0.99 1.16 1.22 1.19 1.21 1.21
1.50 1.48 1.71 1.69 1.53 1.50 1.42 1.40 1.38 1.37 1.36 1.26 1.17 1.05 0.95 0.92 0.95 0.94 0.91 0.80 0.74 0.72 0.70 0.56 0.55 0.59 0.68 0.74 0.79 0.81 0.78 0.76 0.70 0.70 0.87 0.80 0.88 0.88 0.94 1.04 1.29 1.26 1.22
1.53 1.53 1.65 1.84 1.68 1.58 1.55 1.49 1.44 1.40 1.26 1.16 1.07 0.95 0.76 0.78 0.81 0.82 0.84 0.80 0.71 0.68 0.65 0.67 0.65 0.65 0.65 0.62 0.76 0.79 0.79 0.75 0.78 0.72 0.85 0.69 0.71 0.73 0.70 1.02 1.11 1.19 1.20

GFSMA_prec_pwat_291.txt.gz
Precipitable_Water
1.78 1.73 1.68 1.73 1.57 1.74 1.67 1.57 1.69 1.67 1.70 1.63 1.69 1.74 1.72 1.79 1.90 1.97 1.95 2.09 1.96 1.85 1.91 2.04 2.19 2.27 2.25 1.99 1.79 1.79 1.70 1.63 1.59 1.78 1.81 1.90 1.90 1.93 1.97 1.89 1.79 1.74 1.61
1.79 1.81 1.71 1.75 1.75 2.00 1.96 1.86 1.76 1.81 1.81 1.71 1.68 1.79 1.88 1.92 2.05 2.01 1.90 2.11 2.10 2.05 2.03 2.12 2.16 2.22 2.35 2.35 2.13 1.92 1.85 1.81 1.64 1.65 1.84 1.86 1.90 1.98 1.97 1.88 1.79 1.73 1.71
1.98 1.94 1.85 1.85 1.94 1.97 2.10 1.94 1.93 1.97 1.85 1.84 1.84 1.89 1.95 1.95 1.92 1.89 1.97 2.06 2.24 2.34 2.30 2.28 2.25 2.25 2.26 2.35 2.42 2.21 2.01 1.95 1.87 1.77 1.67 1.81 1.87 1.97 2.01 1.93 1.89 1.70 1.68
2.02 2.02 1.99 2.00 2.04 2.04 2.04 1.99 2.10 1.94 1.90 2.03 2.01 2.08 2.05 2.01 2.04 2.05 2.12 2.19 2.23 2.44 2.43 2.33 2.30 2.25 2.26 2.25 2.30 2.40 2.27 2.18 2.11 1.95 1.86 1.68 1.66 1.77 1.96 1.93 1.87 1.72 1.78
2.15 2.16 2.08 2.16 2.33 2.12 2.19 2.11 2.10 2.11 1.94 2.00 2.07 2.09 2.07 2.01 2.03 2.12 2.24 2.19 2.17 2.21 2.38 2.41 2.29 2.22 2.19 2.23 2.29 2.40 2.40 2.33 2.25 2.20 2.07 1.92 1.76 1.73 1.82 1.85 1.89 1.75 1.69
2.24 2.23 2.11 2.18 2.18 2.30 2.16 2.08 2.05 2.08 2.03 2.10 2.02 2.02 2.11 2.14 2.10 2.15 2.17 2.19 2.18 2.25 2.29 2.31 2.31 2.33 2.27 2.22 2.24 2.13 2.17 2.24 2.40 2.31 2.18 2.10 2.01 1.79 1.81 1.84 1.81 1.79 1.77
2.15 2.15 2.14 2.20 2.18 2.16 2.10 2.08 2.07 2.01 2.03 2.09 1.82 1.87 2.02 2.07 2.03 2.10 2.10 2.13 2.15 2.14 2.25 2.24 2.21 2.31 2.47 2.34 2.11 1.95 1.91 2.12 2.17 2.18 2.25 2.15 2.13 2.00 1.88 1.77 1.76 1.84 1.83
2.18 2.21 2.18 2.06 2.08 2.13 2.28 2.19 2.18 2.09 2.18 2.22 1.99 1.91 1.66 1.93 2.07 2.12 2.07 2.01 1.97 1.94 1.83 1.86 1.95 2.06 2.13 2.12 2.10 1.79 1.84 2.05 2.14 2.21 2.26 2.27 2.16 2.14 2.00 1.88 1.78 1.78 1.79
2.19 2.21 2.13 2.07 2.09 1.99 2.01 2.05 2.03 2.06 1.99 2.16 2.12 1.92 1.66 1.60 1.89 2.08 1.98 1.94 1.83 1.61 1.74 1.82 1.94 2.00 1.93 2.03 1.90 1.81 1.86 2.18 2.24 2.31 2.40 2.41 2.33 2.17 2.08 2.01 1.93 1.86 1.83
2.09 2.08 2.13 2.16 2.20 2.19 2.13 2.09 2.06 1.92 1.82 1.69 1.93 1.96 1.99 1.92 1.67 1.64 1.95 1.97 1.85 1.51 1.70 1.84 1.90 2.02 2.06 1.90 1.81 1.77 1.81 2.08 2.12 2.20 2.41 2.44 2.36 2.29 2.13 2.09 2.02 1.99 1.93
2.04 2.04 2.07 2.01 1.96 1.88 1.90 1.89 1.72 1.62 1.57 1.49 1.46 1.67 1.77 1.97 1.96 1.75 1.66 1.67 1.82 1.72 1.60 1.57 1.73 1.86 2.04 1.75 1.69 1.68 1.69 1.82 1.84 2.07 2.23 2.35 2.36 2.28 2.32 2.15 2.09 2.09 1.98
1.95 1.97 2.03 1.94 1.82 1.73 1.59 1.40 1.36 1.22 1.29 1.59 1.63 1.64 1.71 1.78 1.80 1.83 1.73 1.59 1.50 1.45 1.34 1.14 1.33 1.48 1.61 1.54 1.56 1.61 1.60 1.72 1.65 1.65 1.92 2.19 2.24 2.29 2.30 2.26 2.27 2.16 2.06
1.88 2.04 1.74 1.60 1.51 1.47 1.25 1.12 1.13 1.16 1.19 1.38 1.67 1.62 1.62 1.72 1.82 1.69 1.55 1.37 1.18 1.02 0.91 0.99 1.25 1.26 1.34 1.47 1.71 1.56 1.57 1.72 1.61 1.64 1.62 1.73 1.94 2.00 2.11 2.20 2.24 2.24 2.24
1.93 1.75 1.57 1.48 1.34 1.22 1.05 0.96 1.00 1.13 1.33 1.33 1.41 1.52 1.52 1.44 1.48 1.46 1.26 1.02 0.74 0.65 0.87 0.92 1.12 1.28 1.34 1.67 1.58 1.45 1.55 1.54 1.57 1.54 1.48 1.46 1.48 1.53 1.64 1.85 2.08 2.15 2.15
1.89 1.79 1.58 1.50 1.38 1.29 1.14 0.99 0.90 0.96 1.13 1.21 1.28 1.24 1.19 1.08 0.84 0.83 0.83 0.80 0.70 0.58 0.72 1.13 1.01 1.39 1.28 1.41 1.48 1.41 1.54 1.72 1.46 1.42 1.35 1.33 1.30 1.33 1.38 1.42 1.67 1.92 2.00
1.79 1.84 1.59 1.56 1.46 1.35 1.22 1.09 1.13 1.06 0.99 1.02 0.95 1.01 0.85 0.99 1.00 1.04 1.01 0.99 0.94 0.81 0.68 0.92 1.04 1.22 1.30 1.21 1.29 1.30 1.39 1.33 1.40 1.35 1.36 1.25 1.18 1.16 1.14 1.18 1.30 1.47 1.77
2.12 1.78 1.70 1.59 1.41 1.31 1.22 1.17 1.19 1.25 1.06 1.05 1.10 1.11 1.09 1.08 1.11 1.05 1.01 0.99 0.98 0.99 0.85 0.91 1.07 1.27 1.18 1.08 1.16 1.25 1.22 1.24 1.29 1.25 1.25 1.21 1.14 1.10 1.09 1.08 1.14 1.30 1.36
1.84 1.90 1.77 1.59 1.42 1.31 1.24 1.23 1.17 1.23 1.15 1.16 1.23 1.26 1.18 1.16 1.06 1.08 1.00 0.98 0.89 0.94 0.84 0.81 0.95 0.99 1.06 1.15 1.08 1.10 1.12 1.07 1.41 1.39 1.37 1.29 1.17 1.09 1.13 1.09 1.21 1.24 1.23
1.84 1.87 1.93 1.70 1.55 1.36 1.24 1.26 1.26 1.27 1.25 1.28 1.31 1.26 1.25 1.23 1.10 1.08 0.96 0.90 0.91 0.93 0.89 0.83 0.78 0.85 0.94 0.99 1.03 1.07 1.09 1.06 1.13 1.29 1.29 1.25 1.15 1.13 1.19 1.19 1.18 1.15 1.18
1.93 1.98 1.99 2.01 1.81 1.54 1.32 1.33 1.33 1.31 1.28 1.34 1.38 1.36 1.33 1.30 1.21 1.11 1.02 1.01 1.01 0.95 0.92 0.84 0.80 0.79 0.86 0.95 0.99 0.88 0.95 1.07 1.09 1.22 1.51 1.43 1.20 1.17 1.15 1.14 1.14 1.20 1.25
1.94 1.93 1.95 1.96 1.98 1.80 1.48 1.31 1.37 1.36 1.32 1.33 1.37 1.38 1.34 1.36 1.24 1.12 1.06 1.21 1.13 0.94 0.86 0.78 0.74 0.77 0.84 0.97 0.94 0.99 0.94 0.91 1.00 1.02 1.03 1.17 1.35 1.29 1.36 1.34 1.26 1.18 1.31
2.14 1.89 1.74 1.70 1.86 1.94 1.77 1.63 1.47 1.39 1.43 1.41 1.38 1.41 1.40 1.30 1.18 1.10 1.02 0.96 0.97 0.87 0.82 0.80 0.76 0.83 0.86 0.88 0.90 1.01 0.99 0.89 0.82 1.31 1.23 1.00 1.12 1.10 1.19 1.38 1.56 1.30 1.28
1.90 1.73 1.75 1.74 1.76 1.93 1.89 1.75 1.65 1.48 1.53 1.52 1.51 1.49 1.38 1.30 1.33 1.36 1.23 1.12 0.99 0.88 0.81 0.80 0.70 0.74 0.80 0.85 0.89 0.83 0.86 0.94 0.87 0.94 0.99 0.78 0.90 0.87 1.13 1.26 1.29 1.21 1.13
1.70 1.64 1.64 1.67 1.78 1.89 1.87 1.77 1.74 1.48 1.50 1.60 1.58 1.55 1.46 1.39 1.38 1.35 1.27 1.31 1.23 1.06 0.97 0.99 0.88 0.74 0.73 0.85 0.88 0.82 0.79 0.77 0.78 0.89 0.99 0.82 0.89 0.87 1.13 1.27 1.28 1.10 1.10
1.57 1.56 1.62 1.63 1.69 1.80 1.78 1.77 1.77 1.57 1.54 1.60 1.61 1.57 1.52 1.42 1.34 1.23 1.10 1.06 1.11 1.06 1.02 0.94 0.80 0.72 0.67 0.57 0.55 0.62 0.63 0.73 0.77 0.84 1.09 0.91 0.86 0.83 1.03 1.04 1.26 1.23 1.15
1.30 1.43 1.58 1.69 1.76 1.79 1.83 1.81 1.69 1.58 1.54 1.56 1.68 1.64 1.47 1.33 1.25 1.16 1.03 1.08 1.07 1.06 1.01 0.96 0.93 0.95 0.96 0.95 0.89 0.79 0.64 0.66 0.72 0.74 1.02 0.94 0.87 0.85 0.75 0.87 1.15 1.22 1.18